FW5184 Weather Reports


time (UTC)temp
F
wind
direction
speed
knots
gust
knots
rain 1hr
in
rain 24hr
in
rain mn
in
humidity
%
barometer
mb
20260506002244 47 314 0.0 0.0 0.00 0.03 0.03 79 1005.9
20260506000737 48 314 0.0 0.0 0.00 0.03 0.03 78 1005.9
20260505235259 48 314 0.0 0.0 0.00 0.03 0.03 78 1005.9
20260505233753 48 314 0.0 0.0 0.00 0.03 0.03 77 1005.8
20260505232218 48 318 0.0 0.9 0.00 0.03 0.03 78 1005.4
20260505230742 48 322 0.0 0.9 0.00 0.03 0.03 78 1005.4
20260505225307 48 350 0.0 3.5 0.00 0.03 0.03 79 1005.2
20260505223846 48 284 0.0 2.6 0.00 0.03 0.03 79 1005.3
20260505222420 48 331 0.0 4.3 0.00 0.03 0.03 79 1005.6
20260505220956 48 311 0.0 2.6 0.00 0.03 0.03 81 1005.6
20260505215512 48 281 0.0 2.6 0.00 0.03 0.03 83 1005.7
20260505214001 48 327 0.0 1.7 0.00 0.03 0.03 84 1005.5
20260505212509 48 317 0.0 2.6 0.00 0.03 0.03 85 1005.4
20260505203637 49 222 1.7 5.2 0.00 0.03 0.03 85 1005.2
20260505202145 49 276 0.0 2.6 0.00 0.03 0.03 85 1005.1
20260505200624 49 254 1.7 5.2 0.03 0.03 0.03 83 1005.3
20260505195100 50 225 1.7 5.2 0.00 0.02 0.02 81 1004.9
20260505193515 51 263 0.0 0.0 0.03 0.01 0.01 79 1004.9
20260505190414 53 221 3.5 11.3 0.00 0.00 0.00 66 1004.3
20260505184933 54 219 3.5 11.3 0.00 0.00 0.00 64 1004.1
20260505183421 56 219 4.3 13.9 0.00 0.00 0.00 57 1003.8
20260505181839 56 263 4.3 13.9 0.00 0.00 0.00 57 1003.6
20260505174548 57 300 2.6 9.6 0.00 0.00 0.00 57 1003.1
20260505171543 57 227 3.5 11.3 0.00 0.00 0.00 60 1003.0
20260505164546 57 223 3.5 14.8 0.00 0.00 0.00 64 1002.5
20260505163121 57 355 3.5 14.8 0.00 0.00 0.00 62 1002.3
20260505161631 58 308 3.5 12.2 0.00 0.00 0.00 64 1002.4
20260505152904 57 116 3.5 9.6 0.00 0.00 0.00 70 1002.3
20260505151335 56 333 2.6 8.7 0.00 0.00 0.00 74 1001.4
20260505123753 58 236 4.3 12.2 0.00 0.00 0.00 81 998.8
20260505120556 58 229 4.3 9.6 0.00 0.00 0.00 81 998.1
20260505115123 58 246 4.3 9.6 0.00 0.00 0.00 81 998.0
20260505113624 57 199 3.5 8.7 0.00 0.00 0.00 82 998.2
20260505112037 57 205 4.3 9.6 0.00 0.00 0.00 81 998.2
20260505110611 57 232 5.2 10.4 0.00 0.00 0.00 81 997.9
20260505102049 57 260 4.3 11.3 0.00 0.00 0.00 80 997.4
20260505094939 57 211 4.3 10.4 0.00 0.00 0.00 79 997.3
20260505093456 57 198 5.2 10.4 0.00 0.00 0.00 79 996.8
20260505091948 57 177 4.3 10.4 0.00 0.00 0.00 79 996.5
20260505090440 58 196 6.1 13.0 0.00 0.00 0.00 78 996.9
20260505084852 58 244 4.3 13.0 0.00 0.00 0.00 77 996.9
20260505083416 59 195 5.2 13.9 0.00 0.00 0.00 76 996.7
20260505080317 59 223 6.1 15.6 0.00 0.00 0.00 75 996.7
20260505065816 60 238 7.0 14.8 0.00 0.00 0.00 74 997.5
20260505064236 60 199 6.1 15.6 0.00 0.00 0.00 74 997.2
20260505062805 60 214 7.0 15.6 0.00 0.00 0.00 74 997.5
20260505061308 60 229 7.0 13.9 0.00 0.00 0.00 75 997.7
20260505055739 59 206 5.2 11.3 0.00 0.00 0.00 75 997.8
20260505054207 59 202 5.2 13.9 0.00 0.00 0.00 75 998.1
20260505052703 59 221 6.1 13.0 0.00 0.00 0.00 74 998.3
20260505051215 60 184 6.1 12.2 0.00 0.00 0.00 72 998.1
20260505035503 61 191 6.1 13.9 0.00 0.00 0.00 69 998.1
20260505032439 62 221 8.7 17.4 0.00 0.00 0.00 69 998.2
20260505030951 62 190 7.8 15.6 0.00 0.00 0.00 68 998.4
20260505025442 62 184 5.2 14.8 0.00 0.00 0.00 69 998.7
20260505023905 62 195 4.3 7.8 0.00 0.00 0.00 67 998.8
20260505015157 63 200 4.3 13.0 0.00 0.00 0.00 60 999.1
20260505013610 63 155 4.3 13.0 0.00 0.00 0.00 57 998.9
20260505010433 63 242 2.6 7.8 0.00 0.00 0.00 54 998.8
20260505003242 64 215 4.3 13.0 0.00 0.00 0.00 51 998.7